Time,TemperatureF,DewpointF,PressureIn,WindDirection,WindDirectionDegrees,WindSpeedMPH,WindSpeedGustMPH,Humidity,HourlyPrecipIn,Conditions,Clouds,dailyrainin,SoftwareType,DateUTC
2013-11-29 00:01:00,25.5,16.0,30.46,West,270,3.3,5.0,63,0.00,,,0.00,Rainwise IP-100,2013-11-29 05:01:00,
2013-11-29 00:06:00,25.4,16.0,30.46,West,270,2.8,4.0,63,0.00,,,0.00,Rainwise IP-100,2013-11-29 05:06:00,
2013-11-29 00:11:00,25.3,16.0,30.46,WSW,247,1.4,4.0,63,0.00,,,0.00,Rainwise IP-100,2013-11-29 05:11:00,
2013-11-29 00:16:00,25.1,16.0,30.46,WNW,292,0.0,3.0,63,0.00,,,0.00,Rainwise IP-100,2013-11-29 05:16:00,
2013-11-29 00:21:00,24.9,16.0,30.46,WSW,247,1.9,2.0,64,0.00,,,0.00,Rainwise IP-100,2013-11-29 05:21:00,
2013-11-29 00:26:00,24.7,16.0,30.46,West,270,1.4,3.0,65,0.00,,,0.00,Rainwise IP-100,2013-11-29 05:26:00,
2013-11-29 00:31:00,24.7,16.0,30.46,West,270,2.1,4.0,65,0.00,,,0.00,Rainwise IP-100,2013-11-29 05:31:00,
2013-11-29 00:36:00,24.7,16.0,30.46,West,270,0.0,3.0,66,0.00,,,0.00,Rainwise IP-100,2013-11-29 05:36:00,
2013-11-29 00:41:00,24.6,16.0,30.47,West,270,1.6,4.0,66,0.00,,,0.00,Rainwise IP-100,2013-11-29 05:41:00,
2013-11-29 00:46:00,24.7,16.0,30.47,West,270,0.0,3.0,67,0.00,,,0.00,Rainwise IP-100,2013-11-29 05:46:00,
2013-11-29 00:51:00,25.0,16.0,30.46,NNW,337,4.9,5.0,67,0.00,,,0.00,Rainwise IP-100,2013-11-29 05:51:00,
2013-11-29 00:56:00,25.3,16.0,30.46,NNW,337,3.5,6.0,67,0.00,,,0.00,Rainwise IP-100,2013-11-29 05:56:00,
2013-11-29 01:01:00,25.5,16.0,30.46,West,270,3.0,5.0,67,0.00,,,0.00,Rainwise IP-100,2013-11-29 06:01:00,
2013-11-29 01:06:00,25.8,16.0,30.46,West,270,2.1,5.0,66,0.00,,,0.00,Rainwise IP-100,2013-11-29 06:06:00,
2013-11-29 01:11:00,25.9,16.0,30.47,West,270,1.9,4.0,66,0.00,,,0.00,Rainwise IP-100,2013-11-29 06:11:00,
2013-11-29 01:16:00,25.8,16.0,30.47,NW,315,2.6,3.0,67,0.00,,,0.00,Rainwise IP-100,2013-11-29 06:16:00,
2013-11-29 01:21:00,25.9,16.0,30.47,WNW,292,1.2,5.0,66,0.00,,,0.00,Rainwise IP-100,2013-11-29 06:21:00,
2013-11-29 01:26:00,26.1,16.0,30.47,NW,315,3.3,4.0,66,0.00,,,0.00,Rainwise IP-100,2013-11-29 06:26:00,
2013-11-29 01:31:00,26.2,16.0,30.47,NW,315,1.4,4.0,65,0.00,,,0.00,Rainwise IP-100,2013-11-29 06:31:00,
2013-11-29 01:36:00,26.3,16.0,30.47,NNW,337,2.3,6.0,65,0.00,,,0.00,Rainwise IP-100,2013-11-29 06:36:00,
2013-11-29 01:41:00,26.4,16.0,30.47,NW,315,2.6,5.0,64,0.00,,,0.00,Rainwise IP-100,2013-11-29 06:41:00,
2013-11-29 01:46:00,26.5,18.0,30.48,NNW,337,2.3,5.0,64,0.00,,,0.00,Rainwise IP-100,2013-11-29 06:46:00,
2013-11-29 01:51:00,26.5,16.0,30.48,NW,315,1.4,4.0,63,0.00,,,0.00,Rainwise IP-100,2013-11-29 06:51:00,
2013-11-29 01:56:00,26.5,16.0,30.47,WNW,292,0.0,4.0,63,0.00,,,0.00,Rainwise IP-100,2013-11-29 06:56:00,
2013-11-29 02:01:00,26.6,16.0,30.47,NW,315,1.4,5.0,63,0.00,,,0.00,Rainwise IP-100,2013-11-29 07:01:00,
2013-11-29 02:06:00,26.7,16.0,30.47,West,270,0.0,5.0,63,0.00,,,0.00,Rainwise IP-100,2013-11-29 07:06:00,
2013-11-29 02:11:00,26.8,16.0,30.48,WSW,247,0.0,5.0,62,0.00,,,0.00,Rainwise IP-100,2013-11-29 07:11:00,
2013-11-29 02:16:00,26.9,16.0,30.48,WNW,292,2.3,4.0,62,0.00,,,0.00,Rainwise IP-100,2013-11-29 07:16:00,
2013-11-29 02:21:00,26.8,16.0,30.49,WNW,292,0.0,2.0,62,0.00,,,0.00,Rainwise IP-100,2013-11-29 07:21:00,
2013-11-29 02:26:00,26.8,16.0,30.48,NW,315,0.0,3.0,62,0.00,,,0.00,Rainwise IP-100,2013-11-29 07:26:00,
2013-11-29 02:31:00,26.8,16.0,30.48,WNW,292,0.0,3.0,62,0.00,,,0.00,Rainwise IP-100,2013-11-29 07:31:00,
2013-11-29 02:36:00,26.9,16.0,30.48,West,270,2.3,3.0,62,0.00,,,0.00,Rainwise IP-100,2013-11-29 07:36:00,
2013-11-29 02:41:00,26.9,16.0,30.48,NNW,337,1.9,4.0,62,0.00,,,0.00,Rainwise IP-100,2013-11-29 07:41:00,
2013-11-29 02:46:00,26.9,16.0,30.48,NNW,337,2.8,4.0,62,0.00,,,0.00,Rainwise IP-100,2013-11-29 07:46:00,
2013-11-29 02:51:00,26.9,16.0,30.48,NNW,337,2.3,7.0,62,0.00,,,0.00,Rainwise IP-100,2013-11-29 07:51:00,
2013-11-29 02:56:00,27.0,16.0,30.48,NW,315,1.2,5.0,63,0.00,,,0.00,Rainwise IP-100,2013-11-29 07:56:00,
2013-11-29 03:01:00,27.0,16.0,30.48,NW,315,3.0,4.0,62,0.00,,,0.00,Rainwise IP-100,2013-11-29 08:01:00,
2013-11-29 03:06:00,27.0,16.0,30.48,NW,315,2.6,4.0,62,0.00,,,0.00,Rainwise IP-100,2013-11-29 08:06:00,
2013-11-29 03:11:00,27.0,16.0,30.48,NNW,337,0.0,4.0,63,0.00,,,0.00,Rainwise IP-100,2013-11-29 08:11:00,
2013-11-29 03:16:00,27.0,16.0,30.48,NW,315,1.2,4.0,63,0.00,,,0.00,Rainwise IP-100,2013-11-29 08:16:00,
2013-11-29 03:21:00,27.0,16.0,30.48,NW,315,0.0,3.0,63,0.00,,,0.00,Rainwise IP-100,2013-11-29 08:21:00,
2013-11-29 03:26:00,26.9,16.0,30.48,NW,315,1.2,3.0,63,0.00,,,0.00,Rainwise IP-100,2013-11-29 08:26:00,
2013-11-29 03:31:00,26.9,16.0,30.48,WSW,247,1.4,3.0,63,0.00,,,0.00,Rainwise IP-100,2013-11-29 08:31:00,
2013-11-29 03:36:00,26.9,16.0,30.49,WNW,292,0.0,3.0,63,0.00,,,0.00,Rainwise IP-100,2013-11-29 08:36:00,
2013-11-29 03:41:00,26.9,18.0,30.48,WNW,292,0.0,2.0,64,0.00,,,0.00,Rainwise IP-100,2013-11-29 08:41:00,
2013-11-29 03:46:00,26.9,18.0,30.49,WNW,292,0.0,2.0,64,0.00,,,0.00,Rainwise IP-100,2013-11-29 08:46:00,
2013-11-29 03:51:00,26.9,18.0,30.48,WNW,292,0.0,1.0,64,0.00,,,0.00,Rainwise IP-100,2013-11-29 08:51:00,
2013-11-29 03:56:00,26.8,18.0,30.48,WNW,292,0.0,1.0,65,0.00,,,0.00,Rainwise IP-100,2013-11-29 08:56:00,
2013-11-29 04:01:00,26.8,18.0,30.49,WNW,292,1.2,2.0,65,0.00,,,0.00,Rainwise IP-100,2013-11-29 09:01:00,
2013-11-29 04:06:00,26.8,18.0,30.49,WNW,292,1.2,2.0,65,0.00,,,0.00,Rainwise IP-100,2013-11-29 09:06:00,
2013-11-29 04:11:00,26.8,18.0,30.49,WNW,292,0.0,2.0,66,0.00,,,0.00,Rainwise IP-100,2013-11-29 09:11:00,
2013-11-29 04:16:00,26.8,18.0,30.49,WNW,292,2.3,3.0,66,0.00,,,0.00,Rainwise IP-100,2013-11-29 09:16:00,
2013-11-29 04:21:00,26.8,18.0,30.49,WNW,292,0.0,2.0,66,0.00,,,0.00,Rainwise IP-100,2013-11-29 09:21:00,
2013-11-29 04:26:00,26.8,18.0,30.49,NW,315,1.9,2.0,66,0.00,,,0.00,Rainwise IP-100,2013-11-29 09:26:00,
2013-11-29 04:31:00,26.8,18.0,30.49,NNW,337,0.0,2.0,66,0.00,,,0.00,Rainwise IP-100,2013-11-29 09:31:00,
2013-11-29 04:36:00,26.9,18.0,30.48,WNW,292,0.0,4.0,66,0.00,,,0.00,Rainwise IP-100,2013-11-29 09:36:00,
2013-11-29 04:41:00,26.9,18.0,30.49,West,270,0.0,3.0,65,0.00,,,0.00,Rainwise IP-100,2013-11-29 09:41:00,
2013-11-29 04:46:00,26.9,18.0,30.49,West,270,1.2,1.2,65,0.00,,,0.00,Rainwise IP-100,2013-11-29 09:46:00,
2013-11-29 04:51:00,26.9,18.0,30.49,WNW,292,0.0,3.0,65,0.00,,,0.00,Rainwise IP-100,2013-11-29 09:51:00,
2013-11-29 04:56:00,27.0,18.0,30.49,WNW,292,0.0,2.0,65,0.00,,,0.00,Rainwise IP-100,2013-11-29 09:56:00,
2013-11-29 05:01:00,27.0,18.0,30.49,WNW,292,1.4,2.0,65,0.00,,,0.00,Rainwise IP-100,2013-11-29 10:01:00,
2013-11-29 05:06:00,27.0,18.0,30.50,NW,315,0.0,1.0,65,0.00,,,0.00,Rainwise IP-100,2013-11-29 10:06:00,
2013-11-29 05:11:00,27.0,18.0,30.50,NW,315,0.0,1.0,65,0.00,,,0.00,Rainwise IP-100,2013-11-29 10:11:00,
2013-11-29 05:16:00,27.0,18.0,30.50,WNW,292,0.0,2.0,65,0.00,,,0.00,Rainwise IP-100,2013-11-29 10:16:00,
2013-11-29 05:21:00,27.0,18.0,30.50,WNW,292,2.6,2.6,66,0.00,,,0.00,Rainwise IP-100,2013-11-29 10:21:00,
2013-11-29 05:26:00,27.0,18.0,30.50,NW,315,0.0,4.0,65,0.00,,,0.00,Rainwise IP-100,2013-11-29 10:26:00,
2013-11-29 05:31:00,27.0,18.0,30.50,NW,315,1.4,2.0,65,0.00,,,0.00,Rainwise IP-100,2013-11-29 10:31:00,
2013-11-29 05:36:00,27.1,18.0,30.50,NNW,337,0.0,2.0,65,0.00,,,0.00,Rainwise IP-100,2013-11-29 10:36:00,
2013-11-29 05:41:00,27.1,18.0,30.51,NW,315,1.9,1.9,65,0.00,,,0.00,Rainwise IP-100,2013-11-29 10:41:00,
2013-11-29 05:46:00,27.0,18.0,30.51,NW,315,0.0,1.0,65,0.00,,,0.00,Rainwise IP-100,2013-11-29 10:46:00,
2013-11-29 05:51:00,27.0,18.0,30.51,NW,315,0.0,0.0,65,0.00,,,0.00,Rainwise IP-100,2013-11-29 10:51:00,
2013-11-29 05:56:00,26.9,18.0,30.51,NW,315,0.0,0.0,65,0.00,,,0.00,Rainwise IP-100,2013-11-29 10:56:00,
2013-11-29 06:01:00,26.8,18.0,30.51,NW,315,1.4,0.0,66,0.00,,,0.00,Rainwise IP-100,2013-11-29 11:01:00,
2013-11-29 06:06:00,26.7,18.0,30.51,NW,315,1.2,1.2,66,0.00,,,0.00,Rainwise IP-100,2013-11-29 11:06:00,
2013-11-29 06:11:00,26.6,18.0,30.51,West,270,0.0,2.0,66,0.00,,,0.00,Rainwise IP-100,2013-11-29 11:11:00,
2013-11-29 06:16:00,26.5,18.0,30.51,West,270,0.0,0.0,66,0.00,,,0.00,Rainwise IP-100,2013-11-29 11:16:00,
2013-11-29 06:21:00,26.4,16.0,30.51,West,270,0.0,0.0,66,0.00,,,0.00,Rainwise IP-100,2013-11-29 11:21:00,
2013-11-29 06:26:00,26.3,16.0,30.51,West,270,0.0,0.0,67,0.00,,,0.00,Rainwise IP-100,2013-11-29 11:26:00,
2013-11-29 06:31:00,26.2,16.0,30.52,West,270,0.0,0.0,67,0.00,,,0.00,Rainwise IP-100,2013-11-29 11:31:00,
2013-11-29 06:36:00,26.1,16.0,30.51,West,270,0.0,0.0,67,0.00,,,0.00,Rainwise IP-100,2013-11-29 11:36:00,
2013-11-29 06:41:00,26.1,18.0,30.52,West,270,0.0,0.0,68,0.00,,,0.00,Rainwise IP-100,2013-11-29 11:41:00,
2013-11-29 06:46:00,26.1,18.0,30.52,West,270,0.0,0.0,69,0.00,,,0.00,Rainwise IP-100,2013-11-29 11:46:00,
2013-11-29 06:51:00,26.0,18.0,30.52,WNW,292,0.0,0.0,69,0.00,,,0.00,Rainwise IP-100,2013-11-29 11:51:00,
2013-11-29 06:56:00,26.0,18.0,30.52,WNW,292,0.0,1.0,69,0.00,,,0.00,Rainwise IP-100,2013-11-29 11:56:00,
2013-11-29 07:01:00,26.1,18.0,30.53,WNW,292,0.0,0.0,69,0.00,,,0.00,Rainwise IP-100,2013-11-29 12:01:00,
2013-11-29 07:06:00,26.2,18.0,30.52,NNW,337,1.2,3.0,68,0.00,,,0.00,Rainwise IP-100,2013-11-29 12:06:00,
2013-11-29 07:11:00,26.4,18.0,30.52,NNW,337,1.2,2.0,68,0.00,,,0.00,Rainwise IP-100,2013-11-29 12:11:00,
2013-11-29 07:16:00,26.5,18.0,30.53,NNW,337,1.2,3.0,68,0.00,,,0.00,Rainwise IP-100,2013-11-29 12:16:00,
2013-11-29 07:21:00,26.6,18.0,30.53,NNW,337,1.9,3.0,68,0.00,,,0.00,Rainwise IP-100,2013-11-29 12:21:00,
2013-11-29 07:26:00,26.8,18.0,30.53,NNW,337,4.9,4.9,67,0.00,,,0.00,Rainwise IP-100,2013-11-29 12:26:00,
2013-11-29 07:31:00,27.0,18.0,30.54,NNW,337,2.6,4.0,67,0.00,,,0.00,Rainwise IP-100,2013-11-29 12:31:00,
2013-11-29 07:36:00,27.1,18.0,30.54,NNW,337,1.4,3.0,67,0.00,,,0.00,Rainwise IP-100,2013-11-29 12:36:00,
2013-11-29 07:41:00,27.2,18.0,30.54,NNW,337,0.0,2.0,66,0.00,,,0.00,Rainwise IP-100,2013-11-29 12:41:00,
2013-11-29 07:46:00,27.2,18.0,30.54,NNW,337,0.0,1.0,67,0.00,,,0.00,Rainwise IP-100,2013-11-29 12:46:00,
2013-11-29 07:51:00,27.3,18.0,30.55,NNW,337,1.9,2.0,67,0.00,,,0.00,Rainwise IP-100,2013-11-29 12:51:00,
2013-11-29 07:56:00,27.4,18.0,30.55,NW,315,1.9,3.0,66,0.00,,,0.00,Rainwise IP-100,2013-11-29 12:56:00,
2013-11-29 08:01:00,27.6,18.0,30.55,NW,315,0.0,4.0,65,0.00,,,0.00,Rainwise IP-100,2013-11-29 13:01:00,
2013-11-29 08:06:00,27.8,18.0,30.55,WNW,292,0.0,5.0,65,0.00,,,0.00,Rainwise IP-100,2013-11-29 13:06:00,
2013-11-29 08:11:00,28.0,18.0,30.55,North,360,1.9,5.0,65,0.00,,,0.00,Rainwise IP-100,2013-11-29 13:11:00,
2013-11-29 08:16:00,28.2,18.0,30.55,NW,315,1.4,5.0,64,0.00,,,0.00,Rainwise IP-100,2013-11-29 13:16:00,
2013-11-29 08:21:00,28.4,18.0,30.56,NW,315,3.3,4.0,64,0.00,,,0.00,Rainwise IP-100,2013-11-29 13:21:00,
2013-11-29 08:26:00,28.6,18.0,30.55,West,270,3.3,4.0,63,0.00,,,0.00,Rainwise IP-100,2013-11-29 13:26:00,
2013-11-29 08:31:00,28.8,18.0,30.55,NW,315,4.2,5.0,63,0.00,,,0.00,Rainwise IP-100,2013-11-29 13:31:00,
2013-11-29 08:36:00,28.9,18.0,30.56,NNW,337,1.9,5.0,62,0.00,,,0.00,Rainwise IP-100,2013-11-29 13:36:00,
2013-11-29 08:41:00,29.1,18.0,30.56,WNW,292,3.7,4.0,62,0.00,,,0.00,Rainwise IP-100,2013-11-29 13:41:00,
2013-11-29 08:46:00,29.2,18.0,30.56,NW,315,2.1,7.0,62,0.00,,,0.00,Rainwise IP-100,2013-11-29 13:46:00,
2013-11-29 08:51:00,29.3,18.0,30.56,WNW,292,3.5,7.0,61,0.00,,,0.00,Rainwise IP-100,2013-11-29 13:51:00,
2013-11-29 08:56:00,29.6,18.0,30.56,NNW,337,0.0,5.0,61,0.00,,,0.00,Rainwise IP-100,2013-11-29 13:56:00,
2013-11-29 09:01:00,29.9,18.0,30.56,WSW,247,0.0,6.0,61,0.00,,,0.00,Rainwise IP-100,2013-11-29 14:01:00,
2013-11-29 09:06:00,30.4,18.0,30.57,WNW,292,2.8,5.0,61,0.00,,,0.00,Rainwise IP-100,2013-11-29 14:06:00,
2013-11-29 09:11:00,31.1,18.0,30.57,NNW,337,5.6,8.0,60,0.00,,,0.00,Rainwise IP-100,2013-11-29 14:11:00,
2013-11-29 09:16:00,31.1,18.0,30.57,North,360,5.4,9.0,59,0.00,,,0.00,Rainwise IP-100,2013-11-29 14:16:00,
2013-11-29 09:21:00,31.1,18.0,30.57,NNW,337,2.1,9.0,58,0.00,,,0.00,Rainwise IP-100,2013-11-29 14:21:00,
2013-11-29 09:26:00,31.3,18.0,30.57,NW,315,5.1,6.0,58,0.00,,,0.00,Rainwise IP-100,2013-11-29 14:26:00,
2013-11-29 09:31:00,31.8,18.0,30.57,NNW,337,4.4,6.0,58,0.00,,,0.00,Rainwise IP-100,2013-11-29 14:31:00,
2013-11-29 09:36:00,32.6,21.0,30.57,NW,315,2.3,6.0,57,0.00,,,0.00,Rainwise IP-100,2013-11-29 14:36:00,
2013-11-29 09:41:00,32.9,21.0,30.57,WNW,292,3.5,7.0,56,0.00,,,0.00,Rainwise IP-100,2013-11-29 14:41:00,
2013-11-29 09:46:00,33.1,18.0,30.57,NW,315,2.8,6.0,55,0.00,,,0.00,Rainwise IP-100,2013-11-29 14:46:00,
2013-11-29 09:51:00,33.3,18.0,30.57,NW,315,2.3,8.0,54,0.00,,,0.00,Rainwise IP-100,2013-11-29 14:51:00,
2013-11-29 09:56:00,33.4,18.0,30.57,NNW,337,8.9,10.0,53,0.00,,,0.00,Rainwise IP-100,2013-11-29 14:56:00,
2013-11-29 10:01:00,33.5,21.0,30.57,NNW,337,7.2,9.0,53,0.00,,,0.00,Rainwise IP-100,2013-11-29 15:01:00,
2013-11-29 10:06:00,33.2,18.0,30.57,NNW,337,5.8,8.0,53,0.00,,,0.00,Rainwise IP-100,2013-11-29 15:06:00,
2013-11-29 10:11:00,33.2,18.0,30.57,NNW,337,1.6,9.0,53,0.00,,,0.00,Rainwise IP-100,2013-11-29 15:11:00,
2013-11-29 10:16:00,33.4,18.0,30.57,WNW,292,3.3,7.0,52,0.00,,,0.00,Rainwise IP-100,2013-11-29 15:16:00,
2013-11-29 10:21:00,33.7,18.0,30.56,North,360,6.1,9.0,52,0.00,,,0.00,Rainwise IP-100,2013-11-29 15:21:00,
2013-11-29 10:26:00,33.7,18.0,30.56,NNE,22,8.4,9.0,52,0.00,,,0.00,Rainwise IP-100,2013-11-29 15:26:00,
2013-11-29 10:31:00,33.7,18.0,30.56,NW,315,6.8,8.0,52,0.00,,,0.00,Rainwise IP-100,2013-11-29 15:31:00,
2013-11-29 10:36:00,33.8,18.0,30.56,NW,315,4.7,9.0,52,0.00,,,0.00,Rainwise IP-100,2013-11-29 15:36:00,
2013-11-29 10:41:00,33.7,18.0,30.56,NNW,337,3.7,8.0,52,0.00,,,0.00,Rainwise IP-100,2013-11-29 15:41:00,
2013-11-29 10:46:00,34.2,18.0,30.56,NNW,337,2.6,7.0,52,0.00,,,0.00,Rainwise IP-100,2013-11-29 15:46:00,
2013-11-29 10:51:00,34.3,18.0,30.56,WNW,292,0.0,8.0,52,0.00,,,0.00,Rainwise IP-100,2013-11-29 15:51:00,
2013-11-29 10:56:00,34.1,18.0,30.56,West,270,5.8,7.0,52,0.00,,,0.00,Rainwise IP-100,2013-11-29 15:56:00,
2013-11-29 11:01:00,34.1,18.0,30.56,NW,315,6.8,9.0,52,0.00,,,0.00,Rainwise IP-100,2013-11-29 16:01:00,
2013-11-29 11:06:00,34.0,18.0,30.55,West,270,4.9,13.0,52,0.00,,,0.00,Rainwise IP-100,2013-11-29 16:06:00,
2013-11-29 11:11:00,34.1,18.0,30.55,WNW,292,5.4,8.0,51,0.00,,,0.00,Rainwise IP-100,2013-11-29 16:11:00,
2013-11-29 11:16:00,34.1,18.0,30.56,WNW,292,3.0,9.0,51,0.00,,,0.00,Rainwise IP-100,2013-11-29 16:16:00,
2013-11-29 11:21:00,34.3,18.0,30.55,NW,315,3.7,9.0,51,0.00,,,0.00,Rainwise IP-100,2013-11-29 16:21:00,
2013-11-29 11:26:00,34.9,18.0,30.55,North,360,7.2,7.2,51,0.00,,,0.00,Rainwise IP-100,2013-11-29 16:26:00,
2013-11-29 11:31:00,35.1,18.0,30.55,NNW,337,3.3,9.0,50,0.00,,,0.00,Rainwise IP-100,2013-11-29 16:31:00,
2013-11-29 11:36:00,35.1,18.0,30.55,WNW,292,2.8,9.0,49,0.00,,,0.00,Rainwise IP-100,2013-11-29 16:36:00,
2013-11-29 11:41:00,35.1,18.0,30.55,NNW,337,1.6,6.0,49,0.00,,,0.00,Rainwise IP-100,2013-11-29 16:41:00,
2013-11-29 11:46:00,35.5,18.0,30.55,North,360,3.5,6.0,49,0.00,,,0.00,Rainwise IP-100,2013-11-29 16:46:00,
2013-11-29 11:51:00,36.1,18.0,30.55,NW,315,3.3,5.0,49,0.00,,,0.00,Rainwise IP-100,2013-11-29 16:51:00,
2013-11-29 11:56:00,35.6,18.0,30.55,NE,45,0.0,11.0,48,0.00,,,0.00,Rainwise IP-100,2013-11-29 16:56:00,
2013-11-29 12:01:00,35.1,18.0,30.55,West,270,5.8,9.0,48,0.00,,,0.00,Rainwise IP-100,2013-11-29 17:01:00,
2013-11-29 12:06:00,35.0,18.0,30.55,NNE,22,2.6,10.0,49,0.00,,,0.00,Rainwise IP-100,2013-11-29 17:06:00,
2013-11-29 12:11:00,34.8,18.0,30.55,NNW,337,2.3,9.0,48,0.00,,,0.00,Rainwise IP-100,2013-11-29 17:11:00,
2013-11-29 12:16:00,34.9,18.0,30.55,NW,315,4.9,8.0,48,0.00,,,0.00,Rainwise IP-100,2013-11-29 17:16:00,
2013-11-29 12:21:00,35.0,16.0,30.55,West,270,3.7,11.0,47,0.00,,,0.00,Rainwise IP-100,2013-11-29 17:21:00,
2013-11-29 12:26:00,34.8,16.0,30.55,NNW,337,1.6,9.0,47,0.00,,,0.00,Rainwise IP-100,2013-11-29 17:26:00,
2013-11-29 12:31:00,35.0,16.0,30.55,WNW,292,6.5,10.0,47,0.00,,,0.00,Rainwise IP-100,2013-11-29 17:31:00,
2013-11-29 12:36:00,35.3,16.0,30.55,NNW,337,2.6,8.0,47,0.00,,,0.00,Rainwise IP-100,2013-11-29 17:36:00,
2013-11-29 12:41:00,35.5,18.0,30.55,NNW,337,3.0,9.0,46,0.00,,,0.00,Rainwise IP-100,2013-11-29 17:41:00,
2013-11-29 12:46:00,35.5,18.0,30.55,West,270,2.1,7.0,46,0.00,,,0.00,Rainwise IP-100,2013-11-29 17:46:00,
2013-11-29 12:51:00,36.0,18.0,30.55,NW,315,5.1,6.0,46,0.00,,,0.00,Rainwise IP-100,2013-11-29 17:51:00,
2013-11-29 12:56:00,36.1,18.0,30.55,NNW,337,6.3,8.0,46,0.00,,,0.00,Rainwise IP-100,2013-11-29 17:56:00,
2013-11-29 13:01:00,35.9,16.0,30.55,WNW,292,0.0,7.0,45,0.00,,,0.00,Rainwise IP-100,2013-11-29 18:01:00,
2013-11-29 13:06:00,35.8,16.0,30.55,NNE,22,3.0,10.0,45,0.00,,,0.00,Rainwise IP-100,2013-11-29 18:06:00,
2013-11-29 13:11:00,36.0,18.0,30.55,WNW,292,0.0,4.0,46,0.00,,,0.00,Rainwise IP-100,2013-11-29 18:11:00,
2013-11-29 13:16:00,36.2,18.0,30.55,West,270,5.6,7.0,46,0.00,,,0.00,Rainwise IP-100,2013-11-29 18:16:00,
2013-11-29 13:21:00,35.6,16.0,30.55,NNW,337,2.6,11.0,45,0.00,,,0.00,Rainwise IP-100,2013-11-29 18:21:00,
2013-11-29 13:26:00,35.4,16.0,30.55,NNE,22,6.1,7.0,46,0.00,,,0.00,Rainwise IP-100,2013-11-29 18:26:00,
2013-11-29 13:31:00,35.7,18.0,30.55,NW,315,3.3,10.0,46,0.00,,,0.00,Rainwise IP-100,2013-11-29 18:31:00,
2013-11-29 13:36:00,35.9,18.0,30.55,North,360,4.9,11.0,46,0.00,,,0.00,Rainwise IP-100,2013-11-29 18:36:00,
2013-11-29 13:41:00,35.8,18.0,30.55,NNW,337,6.5,6.5,46,0.00,,,0.00,Rainwise IP-100,2013-11-29 18:41:00,
2013-11-29 13:46:00,35.6,18.0,30.55,NNW,337,0.0,7.0,46,0.00,,,0.00,Rainwise IP-100,2013-11-29 18:46:00,
2013-11-29 13:51:00,35.7,18.0,30.55,NNE,22,10.7,10.7,46,0.00,,,0.00,Rainwise IP-100,2013-11-29 18:51:00,
2013-11-29 13:56:00,35.9,18.0,30.55,WNW,292,0.0,10.0,46,0.00,,,0.00,Rainwise IP-100,2013-11-29 18:56:00,
2013-11-29 14:01:00,35.9,18.0,30.55,WNW,292,1.4,10.0,46,0.00,,,0.00,Rainwise IP-100,2013-11-29 19:01:00,
2013-11-29 14:06:00,35.9,18.0,30.56,WNW,292,6.1,7.0,46,0.00,,,0.00,Rainwise IP-100,2013-11-29 19:06:00,
2013-11-29 14:11:00,35.9,18.0,30.55,NNE,22,7.0,9.0,47,0.00,,,0.00,Rainwise IP-100,2013-11-29 19:11:00,
2013-11-29 14:16:00,35.9,18.0,30.55,West,270,3.3,10.0,46,0.00,,,0.00,Rainwise IP-100,2013-11-29 19:16:00,
2013-11-29 14:21:00,35.7,18.0,30.56,NW,315,6.3,7.0,46,0.00,,,0.00,Rainwise IP-100,2013-11-29 19:21:00,
2013-11-29 14:26:00,35.5,18.0,30.56,WSW,247,4.7,9.0,47,0.00,,,0.00,Rainwise IP-100,2013-11-29 19:26:00,
2013-11-29 14:31:00,35.4,16.0,30.56,WNW,292,5.1,8.0,47,0.00,,,0.00,Rainwise IP-100,2013-11-29 19:31:00,
2013-11-29 14:36:00,35.4,16.0,30.56,West,270,5.4,9.0,47,0.00,,,0.00,Rainwise IP-100,2013-11-29 19:36:00,
2013-11-29 14:41:00,35.5,18.0,30.56,North,360,2.8,8.0,47,0.00,,,0.00,Rainwise IP-100,2013-11-29 19:41:00,
2013-11-29 14:46:00,35.7,18.0,30.56,NNW,337,2.1,7.0,47,0.00,,,0.00,Rainwise IP-100,2013-11-29 19:46:00,
2013-11-29 14:51:00,35.5,18.0,30.57,NNW,337,4.2,11.0,47,0.00,,,0.00,Rainwise IP-100,2013-11-29 19:51:00,
2013-11-29 14:56:00,35.2,16.0,30.57,NNE,22,5.6,12.0,47,0.00,,,0.00,Rainwise IP-100,2013-11-29 19:56:00,
2013-11-29 15:01:00,35.1,16.0,30.57,WNW,292,2.8,10.0,47,0.00,,,0.00,Rainwise IP-100,2013-11-29 20:01:00,
2013-11-29 15:06:00,35.1,18.0,30.57,West,270,3.0,7.0,48,0.00,,,0.00,Rainwise IP-100,2013-11-29 20:06:00,
2013-11-29 15:11:00,35.2,18.0,30.57,SSE,157,1.2,6.0,48,0.00,,,0.00,Rainwise IP-100,2013-11-29 20:11:00,
2013-11-29 15:16:00,35.1,18.0,30.57,North,360,4.0,8.0,48,0.00,,,0.00,Rainwise IP-100,2013-11-29 20:16:00,
2013-11-29 15:21:00,35.2,18.0,30.57,NW,315,2.6,7.0,48,0.00,,,0.00,Rainwise IP-100,2013-11-29 20:21:00,
2013-11-29 15:26:00,35.4,18.0,30.57,West,270,4.4,5.0,48,0.00,,,0.00,Rainwise IP-100,2013-11-29 20:26:00,
2013-11-29 15:31:00,35.2,18.0,30.57,NNE,22,4.9,5.0,48,0.00,,,0.00,Rainwise IP-100,2013-11-29 20:31:00,
2013-11-29 15:36:00,34.9,18.0,30.58,NW,315,3.5,8.0,48,0.00,,,0.00,Rainwise IP-100,2013-11-29 20:36:00,
2013-11-29 15:41:00,34.5,18.0,30.58,NNW,337,3.3,6.0,48,0.00,,,0.00,Rainwise IP-100,2013-11-29 20:41:00,
2013-11-29 15:46:00,34.5,18.0,30.58,NNW,337,0.0,4.0,48,0.00,,,0.00,Rainwise IP-100,2013-11-29 20:46:00,
2013-11-29 15:51:00,34.5,18.0,30.58,NW,315,2.3,4.0,49,0.00,,,0.00,Rainwise IP-100,2013-11-29 20:51:00,
2013-11-29 15:56:00,34.0,18.0,30.58,NNW,337,2.1,3.0,49,0.00,,,0.00,Rainwise IP-100,2013-11-29 20:56:00,
2013-11-29 16:01:00,33.4,18.0,30.58,NW,315,1.4,5.0,50,0.00,,,0.00,Rainwise IP-100,2013-11-29 21:01:00,
2013-11-29 16:06:00,32.9,18.0,30.58,NNW,337,1.6,4.0,50,0.00,,,0.00,Rainwise IP-100,2013-11-29 21:06:00,
2013-11-29 16:11:00,32.5,18.0,30.59,NNW,337,1.4,2.0,51,0.00,,,0.00,Rainwise IP-100,2013-11-29 21:11:00,
2013-11-29 16:16:00,32.2,16.0,30.59,NNW,337,0.0,1.0,52,0.00,,,0.00,Rainwise IP-100,2013-11-29 21:16:00,
2013-11-29 16:21:00,31.8,16.0,30.59,NNW,337,0.0,2.0,52,0.00,,,0.00,Rainwise IP-100,2013-11-29 21:21:00,
2013-11-29 16:26:00,31.4,16.0,30.59,NW,315,1.4,3.0,53,0.00,,,0.00,Rainwise IP-100,2013-11-29 21:26:00,
2013-11-29 16:31:00,31.1,16.0,30.59,NW,315,0.0,1.0,54,0.00,,,0.00,Rainwise IP-100,2013-11-29 21:31:00,
2013-11-29 16:36:00,30.7,16.0,30.60,NW,315,0.0,1.0,55,0.00,,,0.00,Rainwise IP-100,2013-11-29 21:36:00,
2013-11-29 16:41:00,30.3,16.0,30.60,WNW,292,1.6,1.6,55,0.00,,,0.00,Rainwise IP-100,2013-11-29 21:41:00,
2013-11-29 16:46:00,30.0,18.0,30.60,WNW,292,0.0,2.0,56,0.00,,,0.00,Rainwise IP-100,2013-11-29 21:46:00,
2013-11-29 16:51:00,29.8,18.0,30.60,WNW,292,0.0,0.0,57,0.00,,,0.00,Rainwise IP-100,2013-11-29 21:51:00,
2013-11-29 16:56:00,29.5,18.0,30.60,WNW,292,0.0,0.0,57,0.00,,,0.00,Rainwise IP-100,2013-11-29 21:56:00,
2013-11-29 17:01:00,29.4,16.0,30.60,WNW,292,0.0,2.0,58,0.00,,,0.00,Rainwise IP-100,2013-11-29 22:01:00,
2013-11-29 17:06:00,29.2,16.0,30.61,WNW,292,0.0,1.0,58,0.00,,,0.00,Rainwise IP-100,2013-11-29 22:06:00,
2013-11-29 17:11:00,29.1,16.0,30.61,NW,315,0.0,3.0,59,0.00,,,0.00,Rainwise IP-100,2013-11-29 22:11:00,
2013-11-29 17:16:00,29.0,18.0,30.62,NW,315,0.0,2.0,60,0.00,,,0.00,Rainwise IP-100,2013-11-29 22:16:00,
2013-11-29 17:21:00,28.9,18.0,30.62,NW,315,0.0,2.0,60,0.00,,,0.00,Rainwise IP-100,2013-11-29 22:21:00,
2013-11-29 17:26:00,28.9,16.0,30.62,NNW,337,1.4,3.0,59,0.00,,,0.00,Rainwise IP-100,2013-11-29 22:26:00,
2013-11-29 17:31:00,29.1,16.0,30.63,NNW,337,0.0,2.0,59,0.00,,,0.00,Rainwise IP-100,2013-11-29 22:31:00,
2013-11-29 17:36:00,29.1,16.0,30.63,NNW,337,1.4,2.0,59,0.00,,,0.00,Rainwise IP-100,2013-11-29 22:36:00,
2013-11-29 17:41:00,29.2,16.0,30.63,NNW,337,1.9,2.0,59,0.00,,,0.00,Rainwise IP-100,2013-11-29 22:41:00,
2013-11-29 17:46:00,29.2,16.0,30.63,NNW,337,2.3,4.0,59,0.00,,,0.00,Rainwise IP-100,2013-11-29 22:46:00,
2013-11-29 17:51:00,29.1,16.0,30.63,NNW,337,4.0,4.0,59,0.00,,,0.00,Rainwise IP-100,2013-11-29 22:51:00,
2013-11-29 17:56:00,29.1,16.0,30.63,North,360,3.0,4.0,58,0.00,,,0.00,Rainwise IP-100,2013-11-29 22:56:00,
2013-11-29 18:01:00,29.1,16.0,30.64,NW,315,2.8,4.0,58,0.00,,,0.00,Rainwise IP-100,2013-11-29 23:01:00,
2013-11-29 18:06:00,29.0,16.0,30.63,NNW,337,0.0,4.0,59,0.00,,,0.00,Rainwise IP-100,2013-11-29 23:06:00,
2013-11-29 18:11:00,29.0,16.0,30.64,NNW,337,2.8,4.0,58,0.00,,,0.00,Rainwise IP-100,2013-11-29 23:11:00,
2013-11-29 18:16:00,29.1,16.0,30.64,NNW,337,4.2,4.2,58,0.00,,,0.00,Rainwise IP-100,2013-11-29 23:16:00,
2013-11-29 18:21:00,29.1,16.0,30.64,NNW,337,2.1,4.0,58,0.00,,,0.00,Rainwise IP-100,2013-11-29 23:21:00,
2013-11-29 18:26:00,29.0,16.0,30.64,North,360,0.0,3.0,58,0.00,,,0.00,Rainwise IP-100,2013-11-29 23:26:00,
2013-11-29 18:31:00,28.6,16.0,30.64,North,360,0.0,2.0,58,0.00,,,0.00,Rainwise IP-100,2013-11-29 23:31:00,
2013-11-29 18:36:00,28.3,16.0,30.64,North,360,0.0,1.0,59,0.00,,,0.00,Rainwise IP-100,2013-11-29 23:36:00,
2013-11-29 18:41:00,28.0,16.0,30.65,North,360,0.0,0.0,60,0.00,,,0.00,Rainwise IP-100,2013-11-29 23:41:00,
2013-11-29 18:46:00,27.4,16.0,30.65,North,360,0.0,0.0,61,0.00,,,0.00,Rainwise IP-100,2013-11-29 23:46:00,
2013-11-29 18:51:00,26.7,16.0,30.65,North,360,0.0,2.0,63,0.00,,,0.00,Rainwise IP-100,2013-11-29 23:51:00,
2013-11-29 18:56:00,26.2,16.0,30.65,North,360,2.1,2.1,63,0.00,,,0.00,Rainwise IP-100,2013-11-29 23:56:00,
2013-11-29 19:01:00,26.0,16.0,30.65,North,360,1.2,2.0,65,0.00,,,0.00,Rainwise IP-100,2013-11-30 00:01:00,
2013-11-29 19:06:00,26.2,16.0,30.65,North,360,1.6,3.0,65,0.00,,,0.00,Rainwise IP-100,2013-11-30 00:06:00,
2013-11-29 19:11:00,26.5,18.0,30.65,NNW,337,1.4,3.0,64,0.00,,,0.00,Rainwise IP-100,2013-11-30 00:11:00,
2013-11-29 19:16:00,26.6,16.0,30.65,NNW,337,1.4,2.0,63,0.00,,,0.00,Rainwise IP-100,2013-11-30 00:16:00,
2013-11-29 19:21:00,26.4,16.0,30.66,NNW,337,1.2,3.0,62,0.00,,,0.00,Rainwise IP-100,2013-11-30 00:21:00,
2013-11-29 19:26:00,26.3,16.0,30.66,NNW,337,0.0,3.0,62,0.00,,,0.00,Rainwise IP-100,2013-11-30 00:26:00,
2013-11-29 19:31:00,26.3,16.0,30.66,NNW,337,1.6,1.6,61,0.00,,,0.00,Rainwise IP-100,2013-11-30 00:31:00,
2013-11-29 19:36:00,26.2,16.0,30.66,NNW,337,1.6,2.0,61,0.00,,,0.00,Rainwise IP-100,2013-11-30 00:36:00,
2013-11-29 19:41:00,26.0,16.0,30.66,NNW,337,1.6,2.0,61,0.00,,,0.00,Rainwise IP-100,2013-11-30 00:41:00,
2013-11-29 19:46:00,25.7,16.0,30.66,NNW,337,2.6,3.0,61,0.00,,,0.00,Rainwise IP-100,2013-11-30 00:46:00,
2013-11-29 19:51:00,25.8,16.0,30.66,NNW,337,2.8,4.0,62,0.00,,,0.00,Rainwise IP-100,2013-11-30 00:51:00,
2013-11-29 19:56:00,26.1,16.0,30.66,NNW,337,3.3,5.0,62,0.00,,,0.00,Rainwise IP-100,2013-11-30 00:56:00,
2013-11-29 20:01:00,26.4,16.0,30.66,North,360,2.3,5.0,62,0.00,,,0.00,Rainwise IP-100,2013-11-30 01:01:00,
2013-11-29 20:06:00,26.3,16.0,30.66,NNW,337,2.3,7.0,62,0.00,,,0.00,Rainwise IP-100,2013-11-30 01:06:00,
2013-11-29 20:11:00,26.5,16.0,30.66,NNW,337,7.2,13.0,61,0.00,,,0.00,Rainwise IP-100,2013-11-30 01:11:00,
2013-11-29 20:16:00,27.0,16.0,30.67,NNW,337,6.1,11.0,60,0.00,,,0.00,Rainwise IP-100,2013-11-30 01:16:00,
2013-11-29 20:21:00,27.1,16.0,30.67,NNE,22,3.3,8.0,58,0.00,,,0.00,Rainwise IP-100,2013-11-30 01:21:00,
2013-11-29 20:26:00,27.1,14.0,30.67,NNE,22,4.0,9.0,56,0.00,,,0.00,Rainwise IP-100,2013-11-30 01:26:00,
2013-11-29 20:31:00,27.0,14.0,30.68,NNE,22,4.9,6.0,55,0.00,,,0.00,Rainwise IP-100,2013-11-30 01:31:00,
2013-11-29 20:36:00,26.8,14.0,30.68,NNE,22,2.8,8.0,55,0.00,,,0.00,Rainwise IP-100,2013-11-30 01:36:00,
2013-11-29 20:41:00,26.6,14.0,30.68,North,360,2.3,8.0,55,0.00,,,0.00,Rainwise IP-100,2013-11-30 01:41:00,
2013-11-29 20:46:00,26.5,14.0,30.68,WNW,292,2.8,7.0,54,0.00,,,0.00,Rainwise IP-100,2013-11-30 01:46:00,
2013-11-29 20:51:00,26.2,14.0,30.68,NNW,337,10.0,10.0,54,0.00,,,0.00,Rainwise IP-100,2013-11-30 01:51:00,
2013-11-29 20:56:00,26.1,11.0,30.68,NNW,337,5.8,12.0,53,0.00,,,0.00,Rainwise IP-100,2013-11-30 01:56:00,
2013-11-29 21:01:00,26.1,11.0,30.69,North,360,3.3,6.0,52,0.00,,,0.00,Rainwise IP-100,2013-11-30 02:01:00,
2013-11-29 21:06:00,25.8,11.0,30.69,North,360,1.9,3.0,52,0.00,,,0.00,Rainwise IP-100,2013-11-30 02:06:00,
2013-11-29 21:11:00,25.4,11.0,30.69,NW,315,4.0,4.0,53,0.00,,,0.00,Rainwise IP-100,2013-11-30 02:11:00,
2013-11-29 21:16:00,25.2,11.0,30.69,North,360,3.0,4.0,53,0.00,,,0.00,Rainwise IP-100,2013-11-30 02:16:00,
2013-11-29 21:21:00,25.2,11.0,30.70,ENE,67,4.0,7.0,52,0.00,,,0.00,Rainwise IP-100,2013-11-30 02:21:00,
2013-11-29 21:26:00,25.2,11.0,30.70,NNE,22,3.0,6.0,52,0.00,,,0.00,Rainwise IP-100,2013-11-30 02:26:00,
2013-11-29 21:31:00,25.1,11.0,30.70,NNE,22,1.6,3.0,52,0.00,,,0.00,Rainwise IP-100,2013-11-30 02:31:00,
2013-11-29 21:36:00,24.8,11.0,30.70,NNE,22,1.4,3.0,52,0.00,,,0.00,Rainwise IP-100,2013-11-30 02:36:00,
2013-11-29 21:41:00,24.5,11.0,30.71,North,360,0.0,2.0,52,0.00,,,0.00,Rainwise IP-100,2013-11-30 02:41:00,
2013-11-29 21:46:00,24.1,11.0,30.71,North,360,1.9,3.0,53,0.00,,,0.00,Rainwise IP-100,2013-11-30 02:46:00,
2013-11-29 21:51:00,23.9,11.0,30.71,North,360,2.3,2.3,53,0.00,,,0.00,Rainwise IP-100,2013-11-30 02:51:00,
2013-11-29 21:56:00,23.5,11.0,30.71,North,360,1.4,2.0,54,0.00,,,0.00,Rainwise IP-100,2013-11-30 02:56:00,
2013-11-29 22:01:00,23.3,11.0,30.70,North,360,2.8,5.0,55,0.00,,,0.00,Rainwise IP-100,2013-11-30 03:01:00,
2013-11-29 22:06:00,23.3,11.0,30.70,North,360,3.3,4.0,56,0.00,,,0.00,Rainwise IP-100,2013-11-30 03:06:00,
2013-11-29 22:11:00,23.6,11.0,30.71,North,360,1.6,5.0,57,0.00,,,0.00,Rainwise IP-100,2013-11-30 03:11:00,
2013-11-29 22:16:00,23.7,11.0,30.70,North,360,2.1,4.0,57,0.00,,,0.00,Rainwise IP-100,2013-11-30 03:16:00,
2013-11-29 22:21:00,23.7,11.0,30.71,NNW,337,2.8,5.0,56,0.00,,,0.00,Rainwise IP-100,2013-11-30 03:21:00,
2013-11-29 22:26:00,23.8,11.0,30.71,NNE,22,3.3,5.0,55,0.00,,,0.00,Rainwise IP-100,2013-11-30 03:26:00,
2013-11-29 22:31:00,24.0,11.0,30.71,North,360,3.7,7.0,55,0.00,,,0.00,Rainwise IP-100,2013-11-30 03:31:00,
2013-11-29 22:36:00,23.9,11.0,30.71,NW,315,1.9,5.0,55,0.00,,,0.00,Rainwise IP-100,2013-11-30 03:36:00,
2013-11-29 22:41:00,23.9,11.0,30.71,North,360,4.0,6.0,54,0.00,,,0.00,Rainwise IP-100,2013-11-30 03:41:00,
2013-11-29 22:46:00,23.9,11.0,30.72,NNW,337,4.2,6.0,54,0.00,,,0.00,Rainwise IP-100,2013-11-30 03:46:00,
2013-11-29 22:51:00,23.8,11.0,30.72,North,360,4.0,4.0,54,0.00,,,0.00,Rainwise IP-100,2013-11-30 03:51:00,
2013-11-29 22:56:00,23.6,11.0,30.72,North,360,1.6,4.0,54,0.00,,,0.00,Rainwise IP-100,2013-11-30 03:56:00,
2013-11-29 23:01:00,23.4,11.0,30.73,NNW,337,2.6,4.0,55,0.00,,,0.00,Rainwise IP-100,2013-11-30 04:01:00,
2013-11-29 23:06:00,23.4,11.0,30.73,NE,45,1.4,5.0,55,0.00,,,0.00,Rainwise IP-100,2013-11-30 04:06:00,
2013-11-29 23:11:00,23.4,11.0,30.73,North,360,2.8,4.0,55,0.00,,,0.00,Rainwise IP-100,2013-11-30 04:11:00,
2013-11-29 23:16:00,23.1,11.0,30.73,North,360,2.1,4.0,56,0.00,,,0.00,Rainwise IP-100,2013-11-30 04:16:00,
2013-11-29 23:21:00,22.9,11.0,30.73,NNW,337,1.9,3.0,56,0.00,,,0.00,Rainwise IP-100,2013-11-30 04:21:00,
2013-11-29 23:26:00,22.6,11.0,30.73,NNW,337,1.9,3.0,56,0.00,,,0.00,Rainwise IP-100,2013-11-30 04:26:00,
2013-11-29 23:31:00,22.3,11.0,30.73,North,360,2.1,4.0,57,0.00,,,0.00,Rainwise IP-100,2013-11-30 04:31:00,
2013-11-29 23:36:00,22.2,11.0,30.73,North,360,2.8,3.0,58,0.00,,,0.00,Rainwise IP-100,2013-11-30 04:36:00,
2013-11-29 23:41:00,22.1,11.0,30.73,NNW,337,2.8,4.0,58,0.00,,,0.00,Rainwise IP-100,2013-11-30 04:41:00,
2013-11-29 23:46:00,22.1,11.0,30.73,North,360,2.6,5.0,59,0.00,,,0.00,Rainwise IP-100,2013-11-30 04:46:00,
2013-11-29 23:51:00,22.2,11.0,30.73,North,360,1.9,4.0,59,0.00,,,0.00,Rainwise IP-100,2013-11-30 04:51:00,
2013-11-29 23:56:00,22.3,11.0,30.73,NNE,22,2.3,4.0,58,0.00,,,0.00,Rainwise IP-100,2013-11-30 04:56:00,